TimeCDT,TemperatureF,Dew PointF,Humidity,Sea Level PressureIn,VisibilityMPH,Wind Direction,Wind SpeedMPH,Gust SpeedMPH,PrecipitationIn,Events,Conditions,WindDirDegrees,DateUTC
12:15 AM,60.3,58.1,93,30.08,-9999.0,SSE,4.6,-,N/A,,Unknown,150,2013-07-04 05:15:00
12:35 AM,60.3,58.1,93,30.09,-9999.0,SSE,5.8,-,N/A,,Unknown,150,2013-07-04 05:35:00
12:55 AM,59.0,57.2,94,30.09,-9999.0,SSE,5.8,-,N/A,,Unknown,160,2013-07-04 05:55:00
1:15 AM,61.0,58.6,92,30.09,-9999.0,SSE,6.9,-,N/A,,Unknown,160,2013-07-04 06:15:00
1:35 AM,60.1,58.1,93,30.08,-9999.0,SSE,5.8,-,N/A,,Unknown,150,2013-07-04 06:35:00
1:55 AM,61.7,59.4,92,30.08,-9999.0,SSE,6.9,-,N/A,,Unknown,150,2013-07-04 06:55:00
2:15 AM,60.1,57.9,93,30.08,-9999.0,SSE,4.6,-,N/A,,Unknown,150,2013-07-04 07:15:00
2:35 AM,59.0,57.2,94,30.07,-9999.0,SE,5.8,-,N/A,,Unknown,140,2013-07-04 07:35:00
2:55 AM,60.6,58.8,94,30.07,-9999.0,SSE,6.9,-,N/A,,Unknown,160,2013-07-04 07:55:00
3:15 AM,61.7,59.4,92,30.08,-9999.0,SSE,6.9,-,N/A,,Unknown,160,2013-07-04 08:15:00
3:35 AM,60.1,58.1,93,30.08,-9999.0,SSE,6.9,-,N/A,,Unknown,160,2013-07-04 08:35:00
3:55 AM,59.0,56.8,93,30.08,-9999.0,SSE,5.8,-,N/A,,Unknown,150,2013-07-04 08:55:00
4:15 AM,59.0,57.2,94,30.08,-9999.0,SE,4.6,-,N/A,,Unknown,140,2013-07-04 09:15:00
4:35 AM,59.0,57.2,94,30.08,-9999.0,SE,5.8,-,N/A,,Unknown,130,2013-07-04 09:35:00
4:55 AM,59.0,57.2,94,30.09,-9999.0,SSE,4.6,-,N/A,,Unknown,150,2013-07-04 09:55:00
5:15 AM,59.0,57.2,94,30.09,-9999.0,Calm,Calm,-,N/A,,Unknown,0,2013-07-04 10:15:00
5:35 AM,58.8,57.0,94,30.10,-9999.0,Calm,Calm,-,N/A,,Unknown,0,2013-07-04 10:35:00
5:55 AM,56.8,54.9,93,30.10,-9999.0,Calm,Calm,-,N/A,,Unknown,0,2013-07-04 10:55:00
6:15 AM,59.0,57.2,94,30.10,-9999.0,Calm,Calm,-,N/A,,Unknown,0,2013-07-04 11:15:00
6:35 AM,59.0,57.2,94,30.10,-9999.0,Calm,Calm,-,N/A,,Unknown,0,2013-07-04 11:35:00
6:55 AM,59.0,57.2,94,30.10,-9999.0,Calm,Calm,-,N/A,,Unknown,0,2013-07-04 11:55:00
7:15 AM,61.5,59.4,93,30.11,-9999.0,Calm,Calm,-,N/A,,Unknown,0,2013-07-04 12:15:00
7:35 AM,62.4,60.3,93,30.11,-9999.0,Calm,Calm,-,N/A,,Unknown,0,2013-07-04 12:35:00
7:55 AM,64.4,60.4,87,30.11,-9999.0,Calm,Calm,-,N/A,,Unknown,0,2013-07-04 12:55:00
8:15 AM,66.2,61.3,84,30.12,-9999.0,Calm,Calm,-,N/A,,Clear,0,2013-07-04 13:15:00
8:35 AM,67.3,61.7,82,30.12,-9999.0,Calm,Calm,-,N/A,,Clear,0,2013-07-04 13:35:00
8:55 AM,69.3,63.9,83,30.12,-9999.0,East,3.5,-,N/A,,Clear,100,2013-07-04 13:55:00
9:15 AM,71.8,65.5,80,30.12,-9999.0,ESE,4.6,-,N/A,,Clear,110,2013-07-04 14:15:00
9:35 AM,74.3,67.1,78,30.11,-9999.0,East,3.5,-,N/A,,Clear,100,2013-07-04 14:35:00
9:55 AM,74.3,66.4,76,30.10,-9999.0,East,3.5,-,N/A,,Clear,100,2013-07-04 14:55:00
10:15 AM,74.3,65.8,75,30.10,-9999.0,Calm,Calm,-,N/A,,Clear,0,2013-07-04 15:15:00
10:35 AM,76.5,65.1,68,30.10,-9999.0,Calm,Calm,-,N/A,,Clear,0,2013-07-04 15:35:00
10:55 AM,77.4,66.4,69,30.10,-9999.0,Calm,Calm,-,N/A,,Clear,0,2013-07-04 15:55:00
11:15 AM,79.3,65.3,62,30.10,-9999.0,Calm,Calm,-,N/A,,Clear,0,2013-07-04 16:15:00
11:35 AM,79.3,65.3,62,30.10,-9999.0,ENE,3.5,-,N/A,,Clear,60,2013-07-04 16:35:00
11:55 AM,79.3,63.9,59,30.10,-9999.0,ENE,4.6,-,N/A,,Clear,70,2013-07-04 16:55:00
12:15 PM,79.3,65.7,63,30.10,-9999.0,NE,3.5,-,N/A,,Mostly Cloudy,50,2013-07-04 17:15:00
12:35 PM,79.3,65.5,62,30.10,-9999.0,ESE,6.9,-,N/A,,Overcast,120,2013-07-04 17:35:00
12:55 PM,81.0,65.8,60,30.09,-9999.0,ENE,5.8,-,N/A,,Scattered Clouds,70,2013-07-04 17:55:00
1:15 PM,81.9,66.0,59,30.09,-9999.0,SE,6.9,-,N/A,,Scattered Clouds,140,2013-07-04 18:15:00
1:35 PM,79.3,63.7,59,30.09,-9999.0,SSE,3.5,-,N/A,,Mostly Cloudy,150,2013-07-04 18:35:00
1:55 PM,81.7,63.7,54,30.08,-9999.0,SSE,5.8,-,N/A,,Mostly Cloudy,150,2013-07-04 18:55:00
2:15 PM,81.9,60.6,48,30.08,-9999.0,South,6.9,-,N/A,,Scattered Clouds,190,2013-07-04 19:15:00
2:35 PM,81.9,63.5,54,30.08,-9999.0,South,10.4,-,N/A,,Scattered Clouds,170,2013-07-04 19:35:00
2:55 PM,81.9,61.2,49,30.07,-9999.0,South,8.1,-,N/A,,Scattered Clouds,170,2013-07-04 19:55:00
3:15 PM,82.8,64.9,55,30.07,-9999.0,SE,8.1,-,N/A,,Scattered Clouds,130,2013-07-04 20:15:00
3:35 PM,81.9,63.9,54,30.07,-9999.0,SE,11.5,-,N/A,,Scattered Clouds,140,2013-07-04 20:35:00
3:55 PM,82.2,62.8,52,30.07,-9999.0,SSE,10.4,-,N/A,,Scattered Clouds,160,2013-07-04 20:55:00
4:15 PM,81.9,64.4,55,30.07,-9999.0,SSE,6.9,-,N/A,,Scattered Clouds,150,2013-07-04 21:15:00
4:35 PM,81.9,63.1,53,30.07,-9999.0,SSE,10.4,-,N/A,,Scattered Clouds,160,2013-07-04 21:35:00
4:55 PM,81.9,61.9,51,30.06,-9999.0,South,8.1,-,N/A,,Clear,190,2013-07-04 21:55:00
5:15 PM,81.9,63.3,53,30.06,-9999.0,SSW,4.6,-,N/A,,Scattered Clouds,200,2013-07-04 22:15:00
5:35 PM,81.9,63.1,53,30.06,-9999.0,SSE,6.9,-,N/A,,Scattered Clouds,160,2013-07-04 22:35:00
5:55 PM,81.9,64.4,55,30.05,-9999.0,South,6.9,-,N/A,,Clear,180,2013-07-04 22:55:00
6:15 PM,81.9,62.4,52,30.05,-9999.0,South,6.9,-,N/A,,Clear,180,2013-07-04 23:15:00
6:35 PM,81.9,62.6,52,30.04,-9999.0,South,5.8,-,N/A,,Clear,180,2013-07-04 23:35:00
6:55 PM,80.6,63.0,55,30.05,-9999.0,South,5.8,-,N/A,,Clear,190,2013-07-04 23:55:00
7:15 PM,79.3,64.2,60,30.05,-9999.0,South,3.5,-,N/A,,Clear,180,2013-07-05 00:15:00
7:35 PM,79.3,66.2,64,30.04,-9999.0,Calm,Calm,-,N/A,,Clear,0,2013-07-05 00:35:00
7:55 PM,79.3,69.4,72,30.04,-9999.0,SE,3.5,-,N/A,,Clear,140,2013-07-05 00:55:00
8:15 PM,74.8,68.0,79,30.05,-9999.0,SSE,3.5,-,N/A,,Clear,150,2013-07-05 01:15:00
8:35 PM,74.3,68.9,83,30.05,-9999.0,SSE,5.8,-,N/A,,Clear,150,2013-07-05 01:35:00
8:55 PM,71.1,66.7,86,30.05,-9999.0,SE,5.8,-,N/A,,Unknown,140,2013-07-05 01:55:00
9:15 PM,69.3,65.3,87,30.05,-9999.0,SSE,4.6,-,N/A,,Unknown,150,2013-07-05 02:15:00
9:35 PM,67.3,63.7,88,30.05,-9999.0,SE,5.8,-,N/A,,Unknown,130,2013-07-05 02:35:00
9:55 PM,67.3,63.1,87,30.06,-9999.0,SE,5.8,-,N/A,,Unknown,140,2013-07-05 02:55:00
10:15 PM,65.3,61.7,88,30.06,-9999.0,SE,3.5,-,N/A,,Unknown,140,2013-07-05 03:15:00
10:35 PM,66.6,62.8,88,30.06,-9999.0,SE,4.6,-,N/A,,Unknown,140,2013-07-05 03:35:00
10:55 PM,66.2,62.8,89,30.07,-9999.0,SE,5.8,-,N/A,,Unknown,130,2013-07-05 03:55:00
11:15 PM,65.7,62.6,90,30.07,-9999.0,ESE,6.9,-,N/A,,Unknown,120,2013-07-05 04:15:00
11:35 PM,66.6,63.0,88,30.07,-9999.0,SE,6.9,-,N/A,,Unknown,140,2013-07-05 04:35:00
11:55 PM,67.8,63.5,86,30.07,-9999.0,SSE,8.1,-,N/A,,Clear,150,2013-07-05 04:55:00